AAL3583 KORD-KFAR

Flight info

Callsign AAL3583
Flight time 1h 30m
Altitude 26000
Route ORD9 PMPKN NEATO DLLAN RONIC BAE GRB DLH WIEDS REEGL FAR
Aircraft A319/M-L/0000

Departure

Time 2026-04-26 00:44
Airport Chicago O'Hare International Airport (KORD)

Arrival

Time 2026-04-26 02:15
Airport Hector International Airport (KFAR)
Time Latitude Longitude Altitude Speed Heading
2026-04-26 00:18 41.97386 -87.90378 669 ft 0 kts 96°
2026-04-26 00:23 41.97387 -87.90391 669 ft 3 kts 98°
2026-04-26 00:23 41.97392 -87.90418 665 ft 3 kts 111°
2026-04-26 00:23 41.97402 -87.90441 667 ft 3 kts 131°
2026-04-26 00:23 41.97418 -87.90459 668 ft 3 kts 143°
2026-04-26 00:24 41.97434 -87.90470 667 ft 1 kts 167°
2026-04-26 00:24 41.97435 -87.90470 667 ft 0 kts 167°
2026-04-26 00:28 41.97432 -87.90469 666 ft 5 kts 171°
2026-04-26 00:28 41.97394 -87.90466 666 ft 6 kts 179°
2026-04-26 00:28 41.97349 -87.90467 669 ft 5 kts 180°
2026-04-26 00:28 41.97310 -87.90466 669 ft 7 kts 180°
2026-04-26 00:29 41.97279 -87.90466 669 ft 2 kts 180°
2026-04-26 00:29 41.97278 -87.90466 669 ft 0 kts 180°
2026-04-26 00:30 41.97240 -87.90466 669 ft 7 kts 180°
2026-04-26 00:31 41.97205 -87.90437 668 ft 9 kts 131°
2026-04-26 00:31 41.97144 -87.90400 669 ft 7 kts 126°
2026-04-26 00:31 41.97136 -87.90315 669 ft 10 kts 91°
2026-04-26 00:31 41.97137 -87.90183 669 ft 17 kts 90°
2026-04-26 00:32 41.97137 -87.90023 669 ft 15 kts 90°
2026-04-26 00:32 41.97140 -87.89897 669 ft 14 kts 80°
2026-04-26 00:32 41.97236 -87.89612 667 ft 14 kts 63°
2026-04-26 00:33 41.97276 -87.89508 667 ft 13 kts 58°
2026-04-26 00:33 41.97348 -87.89437 668 ft 13 kts 13°
2026-04-26 00:33 41.97441 -87.89432 669 ft 14 kts 360°
2026-04-26 00:33 41.97538 -87.89431 669 ft 14 kts
2026-04-26 00:34 41.97664 -87.89431 669 ft 18 kts
2026-04-26 00:34 41.97768 -87.89432 669 ft 12 kts 359°
2026-04-26 00:34 41.97853 -87.89432 669 ft 14 kts
2026-04-26 00:34 41.97940 -87.89364 669 ft 16 kts 50°
2026-04-26 00:35 41.98018 -87.89238 668 ft 19 kts 50°
2026-04-26 00:35 41.98119 -87.89162 669 ft 17 kts 344°
2026-04-26 00:35 41.98219 -87.89260 668 ft 20 kts 320°
2026-04-26 00:35 41.98287 -87.89384 669 ft 13 kts 275°
2026-04-26 00:36 41.98289 -87.89486 669 ft 9 kts 270°
2026-04-26 00:36 41.98289 -87.89588 669 ft 17 kts 270°
2026-04-26 00:36 41.98289 -87.89728 670 ft 12 kts 269°
2026-04-26 00:36 41.98289 -87.89841 670 ft 15 kts 270°
2026-04-26 00:37 41.98289 -87.90012 669 ft 22 kts 269°
2026-04-26 00:37 41.98289 -87.90231 669 ft 22 kts 269°
2026-04-26 00:37 41.98288 -87.90414 668 ft 17 kts 270°
2026-04-26 00:37 41.98288 -87.90565 667 ft 15 kts 270°
2026-04-26 00:38 41.98288 -87.90695 668 ft 14 kts 270°
2026-04-26 00:38 41.98288 -87.90854 668 ft 19 kts 271°
2026-04-26 00:38 41.98288 -87.91009 668 ft 14 kts 270°
2026-04-26 00:38 41.98288 -87.91136 669 ft 14 kts 270°
2026-04-26 00:39 41.98289 -87.91264 671 ft 13 kts 270°
2026-04-26 00:39 41.98289 -87.91391 671 ft 14 kts 269°
2026-04-26 00:39 41.98289 -87.91551 670 ft 19 kts 271°
2026-04-26 00:39 41.98288 -87.91674 670 ft 19 kts 267°
2026-04-26 00:40 41.98288 -87.91900 669 ft 16 kts 270°
2026-04-26 00:40 41.98288 -87.92051 668 ft 18 kts 269°
2026-04-26 00:40 41.98287 -87.92221 668 ft 18 kts 270°
2026-04-26 00:40 41.98286 -87.92379 668 ft 17 kts 269°
2026-04-26 00:41 41.98282 -87.92530 668 ft 16 kts 270°
2026-04-26 00:41 41.98281 -87.92673 668 ft 15 kts 271°
2026-04-26 00:41 41.98282 -87.92802 669 ft 13 kts 271°
2026-04-26 00:41 41.98281 -87.92917 669 ft 12 kts 269°
2026-04-26 00:42 41.98281 -87.93032 669 ft 11 kts 270°
2026-04-26 00:42 41.98294 -87.93116 669 ft 10 kts 312°
2026-04-26 00:42 41.98344 -87.93138 670 ft 7 kts 359°
2026-04-26 00:42 41.98380 -87.93123 671 ft 5 kts 47°
2026-04-26 00:43 41.98387 -87.93096 669 ft 1 kts 87°
2026-04-26 00:43 41.98387 -87.93095 669 ft 0 kts 87°
2026-04-26 00:43 41.98388 -87.93081 671 ft 14 kts 87°
2026-04-26 00:43 41.98390 -87.92638 668 ft 79 kts 90°
2026-04-26 00:44 41.98391 -87.91644 672 ft 133 kts 90°
2026-04-26 00:44 41.98392 -87.90181 708 ft 179 kts 90°
2026-04-26 00:44 41.98375 -87.88369 1065 ft 210 kts 89°
2026-04-26 00:44 41.98345 -87.86399 2104 ft 203 kts 86°
2026-04-26 00:45 41.98371 -87.84530 3152 ft 205 kts 86°
2026-04-26 00:45 41.98409 -87.83219 3481 ft 218 kts 86°
2026-04-26 00:45 41.98464 -87.81092 4021 ft 236 kts 86°
2026-04-26 00:45 41.98520 -87.78809 4639 ft 250 kts 84°
2026-04-26 00:46 41.99082 -87.76608 5439 ft 254 kts 54°
2026-04-26 00:46 42.01007 -87.74835 6527 ft 263 kts 15°
2026-04-26 00:46 42.02856 -87.74851 7272 ft 274 kts 346°
2026-04-26 00:46 42.04043 -87.75555 7781 ft 280 kts 330°
2026-04-26 00:47 42.05670 -87.77035 8557 ft 284 kts 327°
2026-04-26 00:47 42.07313 -87.78546 9315 ft 287 kts 327°
2026-04-26 00:47 42.09010 -87.79997 10084 ft 291 kts 328°
2026-04-26 00:47 42.10799 -87.81401 10458 ft 308 kts 330°
2026-04-26 00:48 42.12762 -87.82806 10670 ft 330 kts 333°
2026-04-26 00:48 42.14857 -87.84186 10936 ft 348 kts 334°
2026-04-26 00:48 42.17113 -87.85578 11234 ft 364 kts 335°
2026-04-26 00:48 42.19481 -87.86977 11566 ft 378 kts 336°
2026-04-26 00:49 42.21939 -87.88386 12085 ft 385 kts 336°
2026-04-26 00:49 42.24429 -87.89786 12688 ft 390 kts 336°
2026-04-26 00:49 42.26952 -87.91184 13288 ft 395 kts 337°
2026-04-26 00:49 42.29592 -87.92283 13851 ft 400 kts 345°
2026-04-26 00:50 42.32332 -87.93050 14383 ft 404 kts 349°
2026-04-26 00:50 42.35116 -87.93647 14935 ft 407 kts 351°
2026-04-26 00:50 42.37942 -87.94142 15485 ft 410 kts 352°
2026-04-26 00:50 42.40752 -87.94558 16016 ft 413 kts 353°
2026-04-26 00:51 42.43627 -87.94931 16546 ft 416 kts 353°
2026-04-26 00:51 42.46527 -87.95282 17066 ft 419 kts 353°
2026-04-26 00:51 42.49449 -87.95627 17569 ft 423 kts 353°
2026-04-26 00:51 42.52389 -87.95969 18082 ft 426 kts 353°
2026-04-26 00:52 42.55361 -87.96318 18539 ft 429 kts 353°
2026-04-26 00:52 42.58340 -87.96673 18995 ft 431 kts 353°
2026-04-26 00:52 42.61334 -87.96996 19444 ft 433 kts 354°
2026-04-26 00:52 42.64352 -87.97281 19888 ft 435 kts 354°
2026-04-26 00:53 42.67381 -87.97538 20333 ft 437 kts 355°
2026-04-26 00:53 42.70397 -87.98003 20745 ft 436 kts 343°
2026-04-26 00:53 42.73249 -87.99393 21183 ft 435 kts 334°
2026-04-26 00:53 42.75994 -88.01132 21603 ft 436 kts 332°
2026-04-26 00:54 42.78706 -88.03007 22010 ft 438 kts 330°
2026-04-26 00:54 42.81365 -88.04934 22415 ft 439 kts 329°
2026-04-26 00:54 42.84092 -88.06965 22833 ft 441 kts 329°
2026-04-26 00:54 42.86742 -88.08974 23228 ft 443 kts 329°
2026-04-26 00:55 42.89431 -88.11036 23599 ft 445 kts 328°
2026-04-26 00:55 42.92132 -88.13124 23952 ft 446 kts 328°
2026-04-26 00:55 42.94829 -88.15219 24278 ft 447 kts 328°
2026-04-26 00:55 42.97539 -88.17331 24597 ft 448 kts 328°
2026-04-26 00:56 43.00257 -88.19457 24912 ft 450 kts 328°
2026-04-26 00:56 43.02978 -88.21588 25259 ft 450 kts 328°
2026-04-26 00:56 43.05674 -88.23703 25759 ft 447 kts 328°
2026-04-26 00:56 43.08391 -88.25826 25925 ft 452 kts 330°
2026-04-26 00:57 43.11371 -88.27334 26001 ft 464 kts 346°
2026-04-26 00:57 43.14616 -88.27778 26032 ft 474 kts 356°
2026-04-26 00:57 43.17941 -88.27825 26036 ft 482 kts 358°
2026-04-26 00:57 43.21275 -88.27742 26083 ft 489 kts 359°
2026-04-26 00:58 43.24700 -88.27594 26103 ft 496 kts 360°
2026-04-26 00:58 43.28167 -88.27412 26113 ft 502 kts
2026-04-26 00:58 43.31680 -88.27211 26116 ft 508 kts
2026-04-26 00:58 43.35224 -88.26998 26118 ft 510 kts
2026-04-26 00:59 43.38770 -88.26780 26114 ft 510 kts
2026-04-26 00:59 43.42314 -88.26559 26115 ft 510 kts
2026-04-26 00:59 43.45861 -88.26337 26118 ft 510 kts
2026-04-26 00:59 43.49413 -88.26115 26116 ft 510 kts
2026-04-26 01:00 43.52958 -88.25893 26120 ft 510 kts
2026-04-26 01:00 43.56507 -88.25671 26120 ft 510 kts
2026-04-26 01:00 43.60056 -88.25449 26121 ft 510 kts
2026-04-26 01:00 43.63599 -88.25229 26115 ft 510 kts
2026-04-26 01:01 43.67148 -88.25008 26116 ft 510 kts
2026-04-26 01:01 43.70704 -88.24786 26113 ft 510 kts
2026-04-26 01:01 43.74253 -88.24565 26113 ft 511 kts
2026-04-26 01:01 43.77809 -88.24344 26112 ft 511 kts
2026-04-26 01:02 43.81357 -88.24124 26110 ft 511 kts
2026-04-26 01:02 43.84906 -88.23903 26112 ft 511 kts
2026-04-26 01:02 43.88412 -88.23685 26111 ft 511 kts 360°
2026-04-26 01:02 43.91963 -88.23464 26112 ft 511 kts 360°
2026-04-26 01:03 43.95517 -88.23242 26107 ft 511 kts 360°
2026-04-26 01:03 43.99073 -88.23020 26110 ft 512 kts 360°
2026-04-26 01:03 44.02632 -88.22798 26110 ft 512 kts 360°
2026-04-26 01:03 44.06174 -88.22577 26102 ft 512 kts 360°
2026-04-26 01:04 44.09748 -88.22353 26108 ft 512 kts 360°
2026-04-26 01:04 44.13320 -88.22129 26112 ft 513 kts 360°
2026-04-26 01:04 44.16883 -88.21906 26113 ft 513 kts 360°
2026-04-26 01:04 44.20451 -88.21682 26118 ft 513 kts 359°
2026-04-26 01:05 44.24019 -88.21459 26112 ft 513 kts 359°
2026-04-26 01:05 44.27591 -88.21234 26112 ft 513 kts 359°
2026-04-26 01:05 44.31160 -88.21010 26126 ft 514 kts 359°
2026-04-26 01:05 44.34734 -88.20786 26124 ft 514 kts 359°
2026-04-26 01:06 44.38306 -88.20562 26128 ft 514 kts 359°
2026-04-26 01:06 44.41832 -88.20340 26128 ft 514 kts 359°
2026-04-26 01:06 44.45454 -88.20112 26132 ft 514 kts 359°
2026-04-26 01:06 44.48987 -88.19889 26132 ft 514 kts 359°
2026-04-26 01:07 44.52560 -88.19716 26122 ft 512 kts 355°
2026-04-26 01:07 44.56048 -88.20471 26132 ft 504 kts 340°
2026-04-26 01:07 44.59212 -88.22454 26130 ft 496 kts 324°
2026-04-26 01:07 44.61846 -88.25516 26129 ft 489 kts 310°
2026-04-26 01:08 44.64008 -88.29173 26117 ft 487 kts 305°
2026-04-26 01:08 44.66049 -88.32963 26111 ft 486 kts 304°
2026-04-26 01:08 44.68058 -88.36787 26114 ft 486 kts 304°
2026-04-26 01:08 44.70039 -88.40563 26116 ft 486 kts 304°
2026-04-26 01:09 44.72053 -88.44371 26122 ft 486 kts 304°
2026-04-26 01:09 44.74083 -88.48168 26123 ft 486 kts 304°
2026-04-26 01:09 44.76135 -88.51958 26125 ft 486 kts 304°
2026-04-26 01:09 44.78200 -88.55726 26127 ft 486 kts 305°
2026-04-26 01:10 44.80276 -88.59477 26121 ft 486 kts 305°
2026-04-26 01:10 44.82371 -88.63228 26123 ft 487 kts 306°
2026-04-26 01:10 44.84475 -88.66968 26120 ft 487 kts 306°
2026-04-26 01:10 44.86593 -88.70707 26115 ft 487 kts 306°
2026-04-26 01:11 44.88718 -88.74439 26117 ft 488 kts 306°
2026-04-26 01:11 44.90849 -88.78167 26112 ft 488 kts 306°
2026-04-26 01:11 44.92981 -88.81883 26109 ft 488 kts 306°
2026-04-26 01:11 44.95122 -88.85605 26104 ft 488 kts 306°
2026-04-26 01:12 44.97269 -88.89329 26095 ft 488 kts 306°
2026-04-26 01:12 44.99417 -88.93048 26095 ft 488 kts 306°
2026-04-26 01:12 45.01567 -88.96768 26095 ft 488 kts 306°
2026-04-26 01:12 45.03686 -89.00431 26094 ft 488 kts 306°
2026-04-26 01:13 45.05838 -89.04149 26095 ft 488 kts 306°
2026-04-26 01:13 45.07986 -89.07861 26093 ft 488 kts 306°
2026-04-26 01:13 45.10144 -89.11588 26095 ft 487 kts 306°
2026-04-26 01:13 45.12292 -89.15300 26093 ft 487 kts 306°
2026-04-26 01:14 45.14442 -89.19016 26095 ft 487 kts 306°
2026-04-26 01:14 45.16586 -89.22727 26092 ft 486 kts 306°
2026-04-26 01:14 45.18727 -89.26435 26095 ft 486 kts 306°
2026-04-26 01:14 45.20873 -89.30152 26097 ft 486 kts 306°
2026-04-26 01:15 45.22982 -89.33807 26097 ft 485 kts 306°
2026-04-26 01:15 45.25119 -89.37517 26102 ft 484 kts 305°
2026-04-26 01:15 45.27253 -89.41225 26109 ft 484 kts 305°
2026-04-26 01:15 45.29380 -89.44924 26109 ft 483 kts 305°
2026-04-26 01:16 45.31502 -89.48618 26107 ft 483 kts 305°
2026-04-26 01:16 45.33620 -89.52312 26106 ft 482 kts 305°
2026-04-26 01:16 45.35741 -89.56013 26105 ft 482 kts 305°
2026-04-26 01:16 45.37856 -89.59706 26100 ft 481 kts 305°
2026-04-26 01:17 45.39966 -89.63399 26098 ft 481 kts 305°
2026-04-26 01:17 45.42078 -89.67098 26098 ft 481 kts 305°
2026-04-26 01:17 45.44185 -89.70794 26093 ft 481 kts 305°
2026-04-26 01:17 45.46296 -89.74502 26096 ft 481 kts 305°
2026-04-26 01:18 45.48406 -89.78214 26093 ft 482 kts 305°
2026-04-26 01:18 45.50517 -89.81932 26102 ft 482 kts 305°
2026-04-26 01:18 45.52599 -89.85601 26096 ft 482 kts 304°
2026-04-26 01:18 45.54707 -89.89324 26092 ft 482 kts 304°
2026-04-26 01:19 45.56816 -89.93051 26102 ft 483 kts 304°
2026-04-26 01:19 45.58924 -89.96780 26097 ft 483 kts 304°
2026-04-26 01:19 45.61035 -90.00521 26099 ft 483 kts 304°
2026-04-26 01:19 45.63143 -90.04262 26108 ft 484 kts 304°
2026-04-26 01:20 45.65257 -90.08014 26096 ft 484 kts 304°
2026-04-26 01:20 45.67367 -90.11767 26095 ft 484 kts 304°
2026-04-26 01:20 45.69478 -90.15526 26093 ft 484 kts 304°
2026-04-26 01:20 45.71587 -90.19287 26089 ft 484 kts 304°
2026-04-26 01:21 45.73670 -90.23005 26090 ft 484 kts 304°
2026-04-26 01:21 45.75783 -90.26783 26090 ft 485 kts 304°
2026-04-26 01:21 45.77892 -90.30556 26086 ft 485 kts 304°
2026-04-26 01:21 45.79997 -90.34329 26087 ft 485 kts 304°
2026-04-26 01:22 45.82102 -90.38107 26085 ft 485 kts 304°
2026-04-26 01:22 45.84208 -90.41891 26088 ft 485 kts 304°
2026-04-26 01:22 45.86315 -90.45683 26089 ft 485 kts 304°
2026-04-26 01:22 45.88388 -90.49418 26093 ft 485 kts 304°
2026-04-26 01:23 45.90493 -90.53219 26095 ft 485 kts 303°
2026-04-26 01:23 45.92595 -90.57019 26100 ft 485 kts 303°
2026-04-26 01:23 45.94691 -90.60812 26100 ft 485 kts 303°
2026-04-26 01:23 45.96791 -90.64617 26101 ft 485 kts 303°
2026-04-26 01:24 45.98884 -90.68417 26101 ft 485 kts 303°
2026-04-26 01:24 46.00951 -90.72173 26104 ft 485 kts 303°
2026-04-26 01:24 46.03041 -90.75978 26101 ft 485 kts 303°
2026-04-26 01:24 46.05136 -90.79795 26102 ft 485 kts 303°
2026-04-26 01:25 46.07224 -90.83606 26106 ft 485 kts 303°
2026-04-26 01:25 46.09313 -90.87422 26106 ft 484 kts 303°
2026-04-26 01:25 46.11397 -90.91234 26106 ft 484 kts 303°
2026-04-26 01:25 46.13480 -90.95053 26105 ft 484 kts 303°
2026-04-26 01:26 46.15569 -90.98886 26106 ft 484 kts 303°
2026-04-26 01:26 46.17648 -91.02707 26105 ft 484 kts 303°
2026-04-26 01:26 46.19726 -91.06532 26104 ft 484 kts 303°
2026-04-26 01:26 46.21803 -91.10360 26100 ft 484 kts 303°
2026-04-26 01:27 46.23849 -91.14135 26102 ft 484 kts 303°
2026-04-26 01:27 46.25924 -91.17969 26102 ft 484 kts 303°
2026-04-26 01:27 46.27996 -91.21802 26102 ft 484 kts 303°
2026-04-26 01:27 46.30095 -91.25691 26105 ft 484 kts 302°
2026-04-26 01:28 46.32144 -91.29493 26105 ft 484 kts 302°
2026-04-26 01:28 46.34219 -91.33347 26107 ft 484 kts 302°
2026-04-26 01:28 46.36287 -91.37195 26107 ft 484 kts 302°
2026-04-26 01:28 46.38349 -91.41037 26105 ft 484 kts 302°
2026-04-26 01:29 46.40424 -91.44906 26104 ft 483 kts 302°
2026-04-26 01:29 46.42483 -91.48753 26101 ft 483 kts 302°
2026-04-26 01:29 46.44516 -91.52555 26102 ft 483 kts 302°
2026-04-26 01:29 46.46574 -91.56410 26097 ft 483 kts 302°
2026-04-26 01:30 46.48634 -91.60273 26101 ft 483 kts 302°
2026-04-26 01:30 46.50690 -91.64136 26097 ft 483 kts 302°
2026-04-26 01:30 46.52745 -91.68000 26107 ft 482 kts 302°
2026-04-26 01:30 46.54766 -91.71805 26108 ft 482 kts 302°
2026-04-26 01:31 46.56837 -91.75712 26110 ft 482 kts 302°
2026-04-26 01:31 46.58881 -91.79574 26119 ft 481 kts 301°
2026-04-26 01:31 46.60917 -91.83427 26115 ft 481 kts 301°
2026-04-26 01:31 46.62937 -91.87256 26115 ft 482 kts 301°
2026-04-26 01:32 46.64976 -91.91127 26107 ft 482 kts 301°
2026-04-26 01:32 46.67013 -91.95000 26106 ft 482 kts 301°
2026-04-26 01:32 46.69052 -91.98883 26107 ft 482 kts 301°
2026-04-26 01:32 46.71090 -92.02768 26108 ft 482 kts 301°
2026-04-26 01:33 46.73126 -92.06658 26105 ft 482 kts 301°
2026-04-26 01:33 46.75165 -92.10561 26106 ft 483 kts 301°
2026-04-26 01:33 46.77197 -92.14459 26106 ft 483 kts 301°
2026-04-26 01:33 46.78575 -92.17007 26072 ft 486 kts 303°
2026-04-26 01:34 46.80832 -92.20706 26084 ft 488 kts 306°
2026-04-26 01:34 46.83173 -92.24314 26083 ft 490 kts 307°
2026-04-26 01:34 46.85551 -92.27883 26089 ft 490 kts 308°
2026-04-26 01:34 46.87943 -92.31431 26087 ft 490 kts 308°
2026-04-26 01:35 46.90350 -92.34978 26096 ft 491 kts 308°
2026-04-26 01:35 46.92758 -92.38518 26099 ft 491 kts 308°
2026-04-26 01:35 46.95163 -92.42051 26105 ft 490 kts 308°
2026-04-26 01:35 46.97569 -92.45587 26118 ft 490 kts 308°
2026-04-26 01:36 46.99977 -92.49129 26121 ft 490 kts 308°
2026-04-26 01:36 47.02383 -92.52673 26128 ft 490 kts 308°
2026-04-26 01:36 47.04786 -92.56218 26134 ft 490 kts 308°
2026-04-26 01:37 47.09588 -92.63317 26132 ft 490 kts 308°
2026-04-26 01:37 47.11960 -92.66832 26129 ft 490 kts 307°
2026-04-26 01:37 47.14384 -92.70429 26123 ft 490 kts 307°
2026-04-26 01:37 47.16751 -92.73946 26119 ft 489 kts 307°
2026-04-26 01:38 47.19142 -92.77503 26115 ft 489 kts 307°
2026-04-26 01:38 47.21538 -92.81075 26110 ft 489 kts 307°
2026-04-26 01:38 47.23929 -92.84644 26106 ft 489 kts 307°
2026-04-26 01:38 47.26315 -92.88211 26103 ft 489 kts 307°
2026-04-26 01:39 47.28698 -92.91778 26103 ft 489 kts 307°
2026-04-26 01:39 47.31087 -92.95360 26099 ft 489 kts 307°
2026-04-26 01:39 47.33467 -92.98932 26102 ft 489 kts 307°
2026-04-26 01:39 47.35844 -93.02505 26109 ft 488 kts 307°
2026-04-26 01:40 47.38226 -93.06092 26114 ft 488 kts 307°
2026-04-26 01:40 47.40580 -93.09643 26121 ft 488 kts 307°
2026-04-26 01:40 47.42954 -93.13230 26124 ft 488 kts 307°
2026-04-26 01:40 47.45328 -93.16824 26124 ft 488 kts 307°
2026-04-26 01:41 47.47696 -93.20423 26131 ft 488 kts 306°
2026-04-26 01:41 47.49664 -93.24397 26138 ft 471 kts 291°
2026-04-26 01:41 47.50737 -93.28870 26151 ft 456 kts 275°
2026-04-26 01:41 47.51022 -93.33495 26151 ft 450 kts 267°
2026-04-26 01:42 47.51069 -93.38122 26144 ft 449 kts 265°
2026-04-26 01:42 47.51048 -93.42747 26142 ft 448 kts 265°
2026-04-26 01:42 47.51003 -93.47303 26132 ft 448 kts 264°
2026-04-26 01:42 47.50951 -93.51911 26129 ft 448 kts 264°
2026-04-26 01:43 47.50901 -93.56513 26128 ft 448 kts 265°
2026-04-26 01:43 47.50857 -93.61116 26122 ft 448 kts 265°
2026-04-26 01:43 47.50819 -93.65728 26123 ft 448 kts 265°
2026-04-26 01:43 47.50786 -93.70337 26128 ft 448 kts 265°
2026-04-26 01:44 47.50759 -93.74946 26131 ft 448 kts 265°
2026-04-26 01:44 47.50735 -93.79556 26126 ft 447 kts 265°
2026-04-26 01:44 47.50716 -93.84167 26129 ft 447 kts 265°
2026-04-26 01:44 47.50699 -93.88763 26130 ft 447 kts 265°
2026-04-26 01:45 47.50684 -93.93308 26135 ft 447 kts 265°
2026-04-26 01:45 47.50670 -93.97911 26143 ft 447 kts 265°
2026-04-26 01:45 47.50656 -94.02506 26138 ft 447 kts 265°
2026-04-26 01:45 47.50643 -94.07099 26140 ft 447 kts 265°
2026-04-26 01:46 47.50630 -94.11704 26137 ft 447 kts 265°
2026-04-26 01:46 47.50616 -94.16298 26136 ft 446 kts 265°
2026-04-26 01:46 47.50601 -94.20893 26104 ft 446 kts 265°
2026-04-26 01:46 47.50586 -94.25477 26088 ft 446 kts 265°
2026-04-26 01:47 47.50568 -94.30105 25636 ft 449 kts 265°
2026-04-26 01:47 47.50549 -94.34718 25175 ft 450 kts 265°
2026-04-26 01:47 47.50528 -94.39356 24721 ft 451 kts 265°
2026-04-26 01:47 47.50506 -94.43996 24271 ft 451 kts 265°
2026-04-26 01:48 47.50489 -94.48506 23816 ft 426 kts 265°
2026-04-26 01:48 47.50478 -94.52719 23316 ft 404 kts 265°
2026-04-26 01:48 47.50467 -94.56779 22795 ft 385 kts 264°
2026-04-26 01:48 47.50453 -94.60661 22280 ft 369 kts 264°
2026-04-26 01:49 47.50437 -94.64371 21771 ft 354 kts 264°
2026-04-26 01:49 47.50418 -94.67960 21273 ft 342 kts 264°
2026-04-26 01:49 47.50396 -94.71410 20783 ft 331 kts 264°
2026-04-26 01:49 47.50372 -94.74767 20301 ft 321 kts 264°
2026-04-26 01:50 47.50346 -94.78025 19830 ft 312 kts 263°
2026-04-26 01:50 47.50319 -94.81197 19363 ft 306 kts 263°
2026-04-26 01:50 47.50288 -94.84300 18910 ft 305 kts 263°
2026-04-26 01:50 47.50254 -94.87445 18461 ft 306 kts 263°
2026-04-26 01:51 47.50221 -94.90591 17950 ft 305 kts 263°
2026-04-26 01:51 47.50191 -94.93717 17430 ft 303 kts 263°
2026-04-26 01:51 47.50163 -94.96824 16931 ft 301 kts 263°
2026-04-26 01:51 47.50134 -94.99915 16432 ft 300 kts 263°
2026-04-26 01:52 47.50106 -95.03002 15947 ft 300 kts 263°
2026-04-26 01:52 47.50077 -95.06080 15467 ft 299 kts 263°
2026-04-26 01:52 47.50047 -95.09142 14993 ft 298 kts 263°
2026-04-26 01:52 47.50017 -95.12195 14527 ft 296 kts 263°
2026-04-26 01:53 47.49985 -95.15243 14071 ft 296 kts 262°
2026-04-26 01:53 47.49952 -95.18282 13576 ft 295 kts 263°
2026-04-26 01:53 47.49910 -95.21320 13064 ft 295 kts 263°
2026-04-26 01:53 47.49863 -95.24347 12559 ft 294 kts 264°
2026-04-26 01:54 47.49817 -95.27366 12063 ft 293 kts 264°
2026-04-26 01:54 47.49772 -95.30372 11571 ft 292 kts 265°
2026-04-26 01:54 47.49730 -95.33354 11250 ft 289 kts 265°
2026-04-26 01:54 47.49692 -95.36320 11123 ft 289 kts 265°
2026-04-26 01:55 47.49656 -95.39300 11063 ft 290 kts 266°
2026-04-26 01:55 47.49622 -95.42279 11037 ft 290 kts 266°
2026-04-26 01:55 47.49589 -95.45268 11024 ft 290 kts 266°
2026-04-26 01:55 47.49554 -95.48216 11020 ft 290 kts 266°
2026-04-26 01:56 47.49518 -95.51201 11021 ft 290 kts 266°
2026-04-26 01:56 47.49481 -95.54176 11014 ft 289 kts 265°
2026-04-26 01:56 47.49443 -95.57142 11013 ft 288 kts 265°
2026-04-26 01:56 47.49403 -95.60107 11012 ft 289 kts 265°
2026-04-26 01:57 47.49359 -95.63072 11008 ft 289 kts 265°
2026-04-26 01:57 47.49315 -95.66047 11006 ft 288 kts 265°
2026-04-26 01:57 47.49271 -95.69012 11004 ft 287 kts 265°
2026-04-26 01:57 47.49225 -95.71970 11005 ft 288 kts 265°
2026-04-26 01:58 47.49179 -95.74929 11007 ft 288 kts 266°
2026-04-26 01:58 47.49132 -95.77886 11004 ft 287 kts 266°
2026-04-26 01:58 47.49084 -95.80832 11005 ft 286 kts 266°
2026-04-26 01:58 47.49037 -95.83784 11007 ft 287 kts 266°
2026-04-26 01:59 47.48988 -95.86727 11006 ft 286 kts 266°
2026-04-26 01:59 47.48939 -95.89630 11003 ft 286 kts 266°
2026-04-26 01:59 47.48889 -95.92564 11001 ft 285 kts 266°
2026-04-26 01:59 47.48837 -95.95499 11006 ft 286 kts 266°
2026-04-26 02:00 47.48785 -95.98435 11008 ft 285 kts 266°
2026-04-26 02:00 47.48734 -96.01363 11008 ft 284 kts 266°
2026-04-26 02:00 47.48682 -96.04288 11011 ft 284 kts 266°
2026-04-26 02:00 47.48629 -96.07207 11012 ft 285 kts 266°
2026-04-26 02:01 47.48575 -96.10112 11009 ft 275 kts 266°
2026-04-26 02:01 47.48528 -96.12835 10956 ft 257 kts 266°
2026-04-26 02:01 47.48478 -96.15458 10488 ft 254 kts 266°
2026-04-26 02:01 47.48335 -96.18047 10010 ft 251 kts 253°
2026-04-26 02:02 47.47449 -96.20243 9419 ft 255 kts 227°
2026-04-26 02:02 47.46121 -96.22002 8848 ft 256 kts 223°
2026-04-26 02:02 47.44761 -96.23708 8317 ft 256 kts 223°
2026-04-26 02:02 47.43412 -96.25433 7792 ft 256 kts 223°
2026-04-26 02:03 47.42091 -96.27196 7275 ft 256 kts 224°
2026-04-26 02:03 47.40799 -96.29002 6767 ft 256 kts 225°
2026-04-26 02:03 47.39528 -96.30847 6259 ft 256 kts 225°
2026-04-26 02:03 47.38280 -96.32704 5773 ft 254 kts 226°
2026-04-26 02:04 47.37046 -96.34581 5351 ft 257 kts 226°
2026-04-26 02:04 47.35819 -96.36478 5153 ft 252 kts 227°
2026-04-26 02:04 47.34619 -96.38357 5077 ft 252 kts 227°
2026-04-26 02:04 47.33437 -96.40222 5048 ft 252 kts 227°
2026-04-26 02:05 47.32250 -96.42109 5074 ft 249 kts 227°
2026-04-26 02:05 47.31065 -96.43996 5040 ft 254 kts 227°
2026-04-26 02:05 47.29877 -96.45891 5020 ft 250 kts 227°
2026-04-26 02:05 47.28691 -96.47785 5008 ft 252 kts 227°
2026-04-26 02:06 47.27500 -96.49691 4764 ft 254 kts 227°
2026-04-26 02:06 47.26304 -96.51601 4208 ft 253 kts 227°
2026-04-26 02:06 47.25119 -96.53495 3487 ft 250 kts 227°
2026-04-26 02:06 47.23944 -96.55374 2979 ft 244 kts 227°
2026-04-26 02:07 47.22828 -96.57155 2704 ft 228 kts 227°
2026-04-26 02:07 47.21793 -96.58801 2585 ft 210 kts 227°
2026-04-26 02:07 47.20820 -96.60348 2539 ft 205 kts 227°
2026-04-26 02:07 47.19849 -96.61895 2522 ft 206 kts 227°
2026-04-26 02:08 47.18878 -96.63438 2504 ft 204 kts 227°
2026-04-26 02:08 47.17961 -96.65016 2501 ft 206 kts 231°
2026-04-26 02:08 47.17101 -96.66639 2490 ft 192 kts 231°
2026-04-26 02:08 47.16317 -96.68115 2496 ft 178 kts 231°
2026-04-26 02:09 47.15526 -96.69557 2494 ft 185 kts 230°
2026-04-26 02:09 47.14699 -96.70997 2495 ft 183 kts 229°
2026-04-26 02:09 47.13845 -96.72408 2502 ft 186 kts 227°
2026-04-26 02:09 47.12957 -96.73783 2496 ft 184 kts 225°
2026-04-26 02:10 47.12044 -96.75110 2500 ft 185 kts 224°
2026-04-26 02:10 47.11094 -96.76390 2493 ft 185 kts 221°
2026-04-26 02:10 47.10126 -96.77592 2495 ft 187 kts 219°
2026-04-26 02:10 47.09105 -96.78746 2494 ft 184 kts 216°
2026-04-26 02:11 47.08041 -96.79815 2486 ft 186 kts 212°
2026-04-26 02:11 47.06912 -96.80647 2483 ft 173 kts 201°
2026-04-26 02:11 47.05736 -96.81025 2485 ft 176 kts 189°
2026-04-26 02:11 47.04527 -96.81251 2485 ft 175 kts 187°
2026-04-26 02:12 47.03367 -96.81418 2480 ft 162 kts 187°
2026-04-26 02:12 47.02271 -96.81543 2484 ft 152 kts 185°
2026-04-26 02:12 47.01196 -96.81607 2484 ft 155 kts 183°
2026-04-26 02:12 47.00119 -96.81627 2373 ft 152 kts 182°
2026-04-26 02:13 46.99103 -96.81629 2128 ft 142 kts 182°
2026-04-26 02:13 46.98100 -96.81629 1913 ft 145 kts 182°
2026-04-26 02:13 46.97099 -96.81634 1672 ft 143 kts 181°
2026-04-26 02:13 46.96097 -96.81641 1460 ft 147 kts 180°
2026-04-26 02:14 46.95057 -96.81601 1283 ft 143 kts 178°
2026-04-26 02:14 46.94060 -96.81580 1097 ft 146 kts 180°
2026-04-26 02:14 46.93082 -96.81609 909 ft 135 kts 181°
2026-04-26 02:14 46.92349 -96.81622 912 ft 72 kts 181°
2026-04-26 02:15 46.91940 -96.81630 902 ft 49 kts 180°
2026-04-26 02:15 46.91674 -96.81632 906 ft 31 kts 180°
2026-04-26 02:15 46.91523 -96.81635 909 ft 13 kts 184°
2026-04-26 02:15 46.91470 -96.81673 911 ft 7 kts 244°
2026-04-26 02:16 46.91467 -96.81753 911 ft 7 kts 272°
2026-04-26 02:16 46.91467 -96.81808 910 ft 8 kts 268°
2026-04-26 02:16 46.91467 -96.81901 909 ft 8 kts 277°
2026-04-26 02:16 46.91509 -96.81959 909 ft 10 kts 347°
2026-04-26 02:17 46.91614 -96.81959 908 ft 22 kts
2026-04-26 02:17 46.91774 -96.81958 905 ft 19 kts 357°
2026-04-26 02:17 46.91885 -96.81958 908 ft 14 kts 360°
2026-04-26 02:17 46.91983 -96.81956 906 ft 14 kts
2026-04-26 02:18 46.92077 -96.81961 906 ft 12 kts 341°
2026-04-26 02:18 46.92108 -96.82044 908 ft 8 kts 269°
2026-04-26 02:18 46.92108 -96.82106 909 ft 8 kts 270°
2026-04-26 02:18 46.92109 -96.82191 909 ft 12 kts 271°
2026-04-26 02:19 46.92109 -96.82321 907 ft 11 kts 272°
2026-04-26 02:19 46.92111 -96.82417 907 ft 7 kts 271°
2026-04-26 02:19 46.92110 -96.82475 906 ft 4 kts 257°
2026-04-26 02:19 46.92098 -96.82498 910 ft 2 kts 218°
2026-04-26 02:20 46.92082 -96.82511 909 ft 2 kts 206°
2026-04-26 02:20 46.92063 -96.82525 908 ft 3 kts 206°
2026-04-26 02:20 46.92057 -96.82529 906 ft 0 kts 207°